METEOSAT 1

Satellite information

Favourite Embed

Satellite Type and Status

PAYLOADIN ORBIT

Key statistics

Satellite METEOSAT 1 at a glance.

Uptime

17499

Days in orbit

Revolutions

≈ 1.0

Per day

Orbit

OTHER

Other

Inclination

5.7

Latest

Satellite identification and parameters

Extended collection of information and parameters for METEOSAT 1.

Object identification

Identified? True

Debris? False

Object name: METEOSAT 1

International designator: 1977-108A

Object number (NORAD): 10489

Object ID (CCSDS): 10489

Country: EUROPEAN SPACE AGENCY (ESA)

Current information (Y/N): Y

RCS size: LARGE

Orbital parameters

Period: 1436.496 minutes

Inclination: 5.6827 deg

SMA: 42172.536 km

Apoapsis: 35825.157 km

Periapsis: 35763.644 km

RAAN: 283.8771 deg

Eccentricy: 0.0007293

Argument of periapsis: 82.9796 deg

Mean anomaly: 314.0134 deg

Mean motion: 1.00243955 rev/day

Mean motion (dot): 0.00000086 rev/day2

B* drag term: 0.0 1/REarth

Two-line elements (TLE)

Creation date: Oct. 21, 2025, 3:26 a.m.

Reference frame: TEME

Reference center: EARTH

Epoch: Oct. 20, 2025, 6:26 p.m. UTC

TLE line 0: 0 METEOSAT 1

TLE line 1: 1 10489U 77108A 25293.76864297 .00000086 00000-0 00000-0 0 9999

TLE line 2: 2 10489 5.6827 283.8771 0007293 82.9796 314.0134 1.00243955134812

Live tracking on map

Real-time ground track for satellite METEOSAT 1.

In-orbit conjunctions

There are no conjunctions computed for METEOSAT 1, at the moment. Check back to stay up to date, as we update our databases every day.

Go to all conjunctions

Associated space launch

European meteorological satellite

METEOSAT 1 was lifted into orbit during the mission ‘Delta 2914 | Meteosat 1’, on board a Delta 2914 space rocket.

The launch took place on Nov. 23, 1977, 1:35 a.m. from Space Launch Complex 17A.

For more information about the launch, click the button.

Launch to space Delta 2914 | Meteosat 1
Delta 2914 | Meteosat 1

Agency: N/A

Status: Launch Successful

Launch date: Nov. 23, 1977, 1:35 a.m. UTC

Rocket: Delta 2914

Launch pad: Space Launch Complex 17A

Location: Cape Canaveral SFS, FL, USA

...

Latest news about this satellite

There are no fresh news available about this satellite. Check back as we update our databases every day.


Newsletter sign-up

Weekly statistics, charts and insights to help you stay on top of the space industry.